map of ORE home
Great Circle Mapper logo
ORE - Airport
Location
City:  Orléans, France
Name:Bricy
ICAO / IATA:LFOJ / ORE

Details
Type:Airport (Aerodrome, Airfield)
Use:Military
Latitude:47°59'16"N (47.987778)
Longitude:1°45'38"E (1.760556)
Elevation:412 ft (126 m)
Variation:0.14°E (WMM2015 magnetic declination)
0.13° annual change
Runways:1
Longest:7887 × 148 ft (2404 × 45 m)

Time
Time Zone:UTC+1 (DST+2)
Local Time:

Weather
METAR:LFOJ 020000Z AUTO 32005KT CAVOK 20/17 Q1015
TAF:LFOJ 012300Z 0200/0224 30005KT CAVOK PROB30
TEMPO 0201/0205 VRB15G25KT -TSRA SCT070CB
BECMG 0210/0212 23015G25KT
BECMG 0216/0218 29012KT

Related Locations
Nearby:
Farthest:CHT: 12130 mi / 19521 km
Waitangi [Tuuta], Chatham Islands, NZ

Find:

   beyond  
but within

Other Information
Maps:
NOTAMs:
Links:
Sources:

  
flag of France   

Sectional Chart

Flight Planning
at skyvector.com

Satellite Image

Google Maps Satellite view

 

Copyright © 2004-2015 Karl L. Swartz. All rights reserved.
The Great Circle Mapper name and logo are trademarks of the Great Circle Mapper.
All other trademarks mentioned herein belong to their respective owners.
Please see credits for attibutions and further copyright information.

  Follow gcmap on Facebook Follow gcmap on Twitter Follow gcmap on Google+

hCard Microformat

Geo Microformat